Location: Gad�tanya
(48.0500°N, 20.8500°E)
Time: 11:24:12
(UTC+00:00)

SPOT 1/Viking Rocket - Pass Details

Date: 05 July 2020
Orbit: 778 x 793 km, 98.5° (Epoch: 14 August)

Event Time Altitude Azimuth Distance (km) Brightness Sun altitude
Exits shadow 19:51:16 - 166° (SSE) 2,391 5.5 -9.7°
Reaches altitude 10° 19:51:25 10° 167° (SSE) 2,327 5.4 -9.7°
Maximum altitude 19:56:34 84° 256° (WSW) 793 3.6 -10.2°
Drops below altitude 10° 20:01:47 10° 345° (NNW) 2,353 7.3 -10.7°
Sets 20:04:07 0° 346° (NNW) 3,288 8.2 -11.0°
